Regional Weather Roundup
Issued by NWS Charleston, WV

Home | Current Version | Previous Version | Graphics & Text | Print | Product List | Glossary On
Versions: 1 2 3 4 5 6 7 8 9 10 11 12 13 14 15 16 17 18 19 20 21 22 23 24 25 26 27 28 29 30 31 32 33 34 35 36 37 38 39 40 41 42 43 44 45 46 47 48 49 50
000
ASUS41 KRLX 212310
RWRRLX
West Virginia Regional Weather Roundup
National Weather Service Charleston WV
700 PM EDT SAT APR 21 2018

Note: "fair" indicates few or no clouds below 12,000 feet with no
significant weather and/or obstructions to visibility.

WVZ003-220000-
Northern Panhandle of West Virginia

CITY           SKY/WX    TMP DP  RH WIND       PRES   REMARKS
WHEELING       FAIR      54  23  30 N6        30.34F
$$

WVZ009-220000-
Northwest West Virginia

CITY           SKY/WX    TMP DP  RH WIND       PRES   REMARKS
PARKERSBURG    FAIR      60  19  20 NW5       30.34S
$$

WVZ006-220000-
Western West Virginia

CITY           SKY/WX    TMP DP  RH WIND       PRES   REMARKS
HUNTINGTON     FAIR      64  19  17 NE9       30.28S
$$

WVZ015-220000-
West Central West Virginia

CITY           SKY/WX    TMP DP  RH WIND       PRES   REMARKS
CHARLESTON     FAIR      66  18  15 N9        30.27S
$$

WVZ022-031-220000-
North Central West Virginia

CITY           SKY/WX    TMP DP  RH WIND       PRES   REMARKS
CLARKSBURG     FAIR      58  22  24 NE10      30.31S
MORGANTOWN     FAIR      56  20  24 N7        30.34S
$$

WVZ025-035-042-045-220000-
Southern West Virginia

CITY           SKY/WX    TMP DP  RH WIND       PRES   REMARKS
BECKLEY        FAIR      64  22  20 N14       30.27S
LOGAN          FAIR      68  21  17 CALM      30.25F
BLUEFIELD      FAIR      63  16  16 S3        30.28F
LEWISBURG      FAIR      62  23  22 S5        30.28F
$$

WVZ047-220000-
Northern Mountains of West Virginia

CITY           SKY/WX    TMP DP  RH WIND       PRES   REMARKS
ELKINS         FAIR      59  13  16 NW6       30.30S
$$

WVZ052-220000-
Eastern Panhandle of West Virginia

CITY           SKY/WX    TMP DP  RH WIND       PRES   REMARKS
MARTINSBURG    FAIR      57  27  31 SE6       30.32S
PETERSBURG     FAIR      60  25  26 E7        30.30R
$$



USA.gov is the U.S. government's official web portal to all federal, state and local government web resources and services.